Content
SEND FEEDBACK

Daily
Averages
Monthly
Summary
Canada

QUEBEC CITY, QUEBEC


Home > North America > Canada > Quebec
Elevation: 239 feet     Latitude: 46 48N     Longitude: 071 23W

WEATHER
 
SELECT A DAY
Number of Records: 192,807;   Date Range: 6/30/96 - 9/17/14
 
SHARE

PRINT THIS DATA

[ ← Previous Day ]
WEATHER ALMANAC - AUGUST 31, 2013
[ Next Day → ]
[ °C ]   °F
Weather ElementAverageHighLow
Temperature67.3 °F75.2 °F (3:00 pm)60.8 °F (6:00 am)
Dewpoint55.6 °F66.2 °F (5:00 pm) (7:00 pm)
Humidity84 %100 % (1:00 am)55 % (2:00 pm)
Barometer26.38 in29.83 in (10:00 am) (7:00 pm)
Wind Speed4 mph9.2 mph (9:00 am)
Weather ElementAverage
Visibility19.3 mi
Wind DirectionESE (112.6 °)

Weather ElementTotal
Precipitation---
Cooling Degree Days3 (Base 65)
Growing Degree Days18 (Base 50)
Averaged from 35 records on August 31, 2013
WEATHER CONDITIONS BREAKOUT
WIND DIRECTION BREAKOUT
WEATHER BY HOUR - AUGUST 31, 2013
[ °C ]   °F
Local TimeTemperatureDewpointHumidityBarometerVisibilityWind DirectionWind SpeedGust SpeedPrecipitationEventsConditions
12:52 AM64.4 °F0.0 °F10.0 miNNW (340°)2.3 mphRainLight Rain Showers
1:00 AM64.4 °F64.4 °F100 %29.76 in10.0 miESE (120°)2.3 mphRainLight Rain Showers
1:31 AM64.4 °F0.0 °F7.0 miCalmOvercast
2:00 AM64.0 °F63.0 °F97 %29.73 inCalm
2:00 AM64.4 °F64.4 °F100 %29.75 in8.0 miCalmOvercast
3:00 AM64.4 °F64.4 °F100 %29.76 in7.0 miCalmRainLight Rain Showers
3:22 AM64.4 °F0.0 °F6.0 miNorth (350°)3.5 mphOvercast
4:00 AM64.4 °F62.6 °F94 %29.75 in7.0 miNorth (10°)4.6 mphOvercast
5:00 AM62.6 °F60.8 °F94 %29.77 in10.0 miNorth (10°)4.6 mphMostly Cloudy
5:00 AM62.0 °F61.0 °F94 %29.75 inNorth (350°)4.6 mph
6:00 AM60.8 °F60.8 °F100 %29.79 in30.0 miNNE (20°)5.8 mphOvercast
6:17 AM60.8 °F0.0 °F30.0 miNorth (10°)5.8 mphOvercast
7:00 AM60.8 °F60.8 °F100 %29.81 in30.0 miNorth (10°)4.6 mphMostly Cloudy
8:00 AM63.0 °F60.0 °F89 %29.79 inNorth (10°)3.5 mph
8:00 AM62.6 °F60.8 °F94 %29.81 in30.0 miNorth (10°)5.8 mphMostly Cloudy
9:00 AM66.2 °F62.6 °F88 %29.82 in25.0 miNNE (30°)9.2 mphMostly Cloudy
10:00 AM68.0 °F62.6 °F83 %29.83 in25.0 miENE (70°)9.2 mphMostly Cloudy
11:00 AM69.8 °F62.6 °F78 %29.82 in25.0 miEast (80°)9.2 mphMostly Cloudy
11:00 AM71.0 °F62.0 °F67 %29.80 inEast (100°)6.9 mph
12:00 PM73.4 °F62.6 °F69 %29.81 in25.0 miENE (70°)6.9 mphMostly Cloudy
1:00 PM73.4 °F60.8 °F65 %29.80 in25.0 miENE (60°)5.8 mphMostly Cloudy
2:00 PM75.0 °F62.0 °F55 %29.78 inSE (130°)4.6 mph
2:00 PM73.4 °F60.8 °F65 %29.80 in25.0 miSSE (160°)3.5 mphMostly Cloudy
3:00 PM75.2 °F62.6 °F65 %29.79 in25.0 miCalmMostly Cloudy
4:00 PM73.4 °F64.4 °F73 %29.78 in25.0 miSouth (180°)4.6 mphMostly Cloudy
5:00 PM73.4 °F66.2 °F78 %29.78 in25.0 miWest (260°)3.5 mphMostly Cloudy
5:00 PM72.0 °F66.0 °F75 %29.76 inWest (260°)3.5 mph
6:00 PM71.6 °F64.4 °F78 %29.78 in25.0 miCalmMostly Cloudy
7:00 PM71.6 °F64.4 °F78 %29.78 in25.0 miENE (70°)5.8 mphMostly Cloudy
8:00 PM70.0 °F64.0 °F76 %29.78 inNE (50°)1.2 mph
8:00 PM69.8 °F64.4 °F83 %29.80 in15.0 miNE (50°)3.5 mphMostly Cloudy
9:00 PM68.0 °F64.4 °F88 %29.81 in15.0 miNorth (350°)3.5 mphMostly Cloudy
10:00 PM66.2 °F62.6 °F88 %29.80 in15.0 miNNE (20°)3.5 mphScattered Clouds
11:00 PM63.0 °F62.0 °F96 %29.78 inWNW (300°)2.3 mph
11:00 PM64.4 °F62.6 °F94 %29.80 in15.0 miNorth (350°)5.8 mphMostly Cloudy
Hourly data recorded from CYQB, located miles away from Quebec City, Quebec







STORIES FROM OUR PARTNERS